カタログに戻る

ATLAS 5 CENTAUR DEB

運用中HEO
NORAD 46848·DEBRIS·🇺🇸 United States

打ち上げ Oct 17, 2018 から Cape Canaveral Space Force Station

Loading…

次のパス (今後24時間)

TLE

最新Source: Space-Track

元期: Sep 13, 2026, 14:39 UTC

1 46848U 18079DD  26256.61088814 -.00000150  00000-0  00000-0 0  9999
2 46848  13.3805  43.9347 4425567 292.5757  27.1498  1.79131134 38374

AllMySatでATLAS 5 CENTAUR DEBをリアルタイム追跡

Download on the App Store